Regional Weather Roundup
Issued by NWS

Home | Current Version | Previous Version | Graphics & Text | Print | Product List | Glossary On
Versions: 1 2 3 4 5 6 7 8 9 10 11 12 13 14 15 16 17 18 19 20 21 22 23 24 25 26 27 28 29 30 31 32 33 34 35 36 37 38 39 40 41 42 43 44 45 46 47 48 49 50
000
ASUS45 KCYS 291110
RWRWY

WYOMING REGIONAL WEATHER ROUNDUP
NATIONAL WEATHER SERVICE CHEYENNE WY
500 AM MDT SAT AUG 29 2015

NOTE:  "FAIR" INDICATES FEW OR NO CLOUDS BELOW 12,000 FEET
WITH NO SIGNIFICANT WEATHER AND/OR OBSTRUCTIONS TO VISIBILITY.

WYZ001-291200-
YELLOWSTONE NATIONAL PARK

CITY           SKY/WX    TMP DP  RH WIND       PRES   REMARKS
LK YELLOWSTONE   N/A     40  37  89 CALM      30.35S
W YELLOWSTONE  NOT AVBL

$$
WYZ002>013-054>058-071-098>099-291200-
NORTHERN WYOMING

CITY           SKY/WX    TMP DP  RH WIND       PRES   REMARKS
JACKSON        FAIR      45  39  81 CALM      30.27R
CODY           FAIR      63  39  42 CALM      30.10S
GREYBULL       FAIR      59  40  49 SE3       30.04F
WORLAND        FAIR      51  44  77 CALM      30.06F
SHERIDAN       FAIR      52  43  71 CALM      30.03F
BUFFALO        FAIR      69  32  25 SW13      30.12S
GILLETTE       FAIR      65  40  39 VRB5      30.09S
HULETT         FAIR      64  43  45 SW6       30.10F
NEWCASTLE      FAIR      68  37  32 MISG      30.13S

$$
WYZ014>020-022>026-101>103-291200-
CENTRAL WYOMING

CITY           SKY/WX    TMP DP  RH WIND       PRES   REMARKS
BIG PINEY      FAIR      42  31  64 N3        30.33R
PINEDALE       FAIR      41  37  87 W5        30.34S
DUBOIS         FAIR      45  34  65 NW12      30.31S
LANDER         FAIR      62  34  35 NW3       30.18S
RIVERTON       FAIR      56  41  57 NW10      30.19S
CASPER         FAIR      57  37  47 SW7       30.18S
DOUGLAS        FAIR      52  39  61 E3        30.18F

$$
WYZ021-027>030-104>119-291200-
SOUTHERN WYOMING

CITY           SKY/WX    TMP DP  RH WIND       PRES   REMARKS
EVANSTON       FAIR      60  34  37 SE6       30.29F
KEMMERER       FAIR      50  32  50 N9        30.33R
FORT BRIDGER   SUNNY     63  32  31 CALM      30.32S
ROCK SPRINGS   FAIR      58  29  33 S6        30.29F
DIXON          FAIR      48  38  69 SE5       30.34S
RAWLINS        FAIR      46  38  73 NE5       30.32S
SARATOGA       FAIR      50  41  71 S6        30.36S
LARAMIE        FAIR      43  40  89 S8        30.35F
CHEYENNE       FAIR      54  44  69 W6        30.29F
TORRINGTON     FAIR      56  45  66 SE5       30.15F
PINE BLUFFS    FAIR      50  41  71 S6        30.25F

$$


USA.gov is the U.S. government's official web portal to all federal, state and local government web resources and services.